Location: Kershaw
(34.5481°N, 80.5823°W)
Time: 09:34:53
(UTC+00:00)

Altair - Pass Details

Date: 10 October 2022
Orbit: 1501 x 1682 km, 47.2° (Epoch: 30 November)

Event Time Altitude Azimuth Distance (km) Brightness Sun altitude
Rises 11:38:27 0° 291° (WNW) 4,798 9.4 2.1°
Reaches altitude 10° 11:41:51 10° 299° (WNW) 3,838 9.0 2.8°
Maximum altitude 11:50:58 40° 7° (N) 2,273 8.5 4.7°
Drops below altitude 10° 12:00:19 10° 74° (ENE) 3,937 10.9 6.5°
Sets 12:03:50 0° 82° (E) 4,931 11.7 7.2°
